Time,TemperatureF,DewpointF,PressureIn,WindDirection,WindDirectionDegrees,WindSpeedMPH,WindSpeedGustMPH,Humidity,HourlyPrecipIn,Conditions,Clouds,dailyrainin,SoftwareType,DateUTC
2013-02-19 00:02:00,27.0,24.0,29.65,WNW,292,18.0,34.0,88,0.00,,,0.26,,2013-02-19 06:02:00,
2013-02-19 00:12:00,27.0,24.0,29.65,WNW,292,18.0,34.0,88,0.00,,,0.26,,2013-02-19 06:12:00,
2013-02-19 00:21:00,27.0,24.0,29.65,WNW,284,20.0,30.0,87,0.00,,,0.26,,2013-02-19 06:21:00,
2013-02-19 00:32:00,27.0,24.0,29.66,WNW,300,18.0,29.0,88,0.00,,,0.26,,2013-02-19 06:32:00,
2013-02-19 00:42:00,27.0,24.0,29.66,WNW,300,18.0,29.0,88,0.00,,,0.26,,2013-02-19 06:42:00,
2013-02-19 00:52:00,26.0,22.0,29.67,WNW,287,19.0,26.0,85,0.00,,,0.26,,2013-02-19 06:52:00,
2013-02-19 01:01:00,26.0,23.0,29.68,NW,306,15.0,23.0,87,0.00,,,0.26,,2013-02-19 07:01:00,
2013-02-19 01:11:00,26.0,23.0,29.68,NW,306,15.0,23.0,87,0.00,,,0.26,,2013-02-19 07:11:00,
2013-02-19 01:22:00,25.0,22.0,29.69,West,270,19.0,30.0,87,0.00,,,0.26,,2013-02-19 07:22:00,
2013-02-19 01:32:00,25.0,22.0,29.69,WSW,257,19.0,27.0,87,0.00,,,0.26,,2013-02-19 07:32:00,
2013-02-19 01:42:00,25.0,22.0,29.69,WSW,257,19.0,27.0,87,0.00,,,0.26,,2013-02-19 07:42:00,
2013-02-19 01:52:00,24.0,20.0,29.70,West,272,19.0,31.0,86,0.00,,,0.26,,2013-02-19 07:52:00,
2013-02-19 02:02:00,23.0,19.0,29.71,West,267,18.0,28.0,86,0.00,,,0.26,,2013-02-19 08:02:00,
2013-02-19 02:11:00,23.0,19.0,29.71,West,267,18.0,28.0,86,0.00,,,0.26,,2013-02-19 08:11:00,
2013-02-19 02:21:00,23.0,19.0,29.72,WNW,283,18.0,26.0,86,0.00,,,0.26,,2013-02-19 08:21:00,
2013-02-19 02:31:00,22.0,18.0,29.73,West,271,18.0,29.0,86,0.00,,,0.26,,2013-02-19 08:31:00,
2013-02-19 02:42:00,22.0,18.0,29.73,West,271,18.0,29.0,86,0.00,,,0.26,,2013-02-19 08:42:00,
2013-02-19 02:52:00,22.0,18.0,29.73,West,266,21.0,31.0,83,0.00,,,0.26,,2013-02-19 08:52:00,
2013-02-19 03:01:00,22.0,18.0,29.73,WSW,253,19.0,26.0,85,0.00,,,0.26,,2013-02-19 09:01:00,
2013-02-19 03:11:00,22.0,18.0,29.73,WSW,253,19.0,26.0,85,0.00,,,0.26,,2013-02-19 09:11:00,
2013-02-19 03:21:00,22.0,18.0,29.74,West,272,17.0,31.0,85,0.00,,,0.26,,2013-02-19 09:21:00,
2013-02-19 03:32:00,22.0,18.0,29.74,WSW,254,19.0,26.0,84,0.00,,,0.26,,2013-02-19 09:32:00,
2013-02-19 03:42:00,22.0,18.0,29.74,WSW,254,19.0,26.0,84,0.00,,,0.26,,2013-02-19 09:42:00,
2013-02-19 03:52:00,22.0,18.0,29.74,WSW,254,19.0,29.0,84,0.00,,,0.26,,2013-02-19 09:52:00,
2013-02-19 04:02:00,20.0,16.0,29.74,West,265,20.0,34.0,83,0.00,,,0.26,,2013-02-19 10:02:00,
2013-02-19 04:11:00,20.0,16.0,29.74,West,265,20.0,34.0,83,0.00,,,0.26,,2013-02-19 10:11:00,
2013-02-19 04:21:00,20.0,16.0,29.76,West,261,15.0,28.0,84,0.00,,,0.26,,2013-02-19 10:21:00,
2013-02-19 04:32:00,19.0,15.0,29.76,West,260,16.0,24.0,83,0.00,,,0.26,,2013-02-19 10:32:00,
2013-02-19 04:42:00,19.0,15.0,29.76,West,260,16.0,24.0,83,0.00,,,0.26,,2013-02-19 10:42:00,
2013-02-19 04:51:00,20.0,16.0,29.77,West,271,17.0,28.0,83,0.00,,,0.26,,2013-02-19 10:51:00,
2013-02-19 05:01:00,19.0,15.0,29.77,West,271,18.0,27.0,83,0.00,,,0.26,,2013-02-19 11:01:00,
2013-02-19 05:11:00,19.0,15.0,29.77,West,271,18.0,27.0,83,0.00,,,0.26,,2013-02-19 11:11:00,
2013-02-19 05:22:00,18.0,13.0,29.77,West,263,19.0,32.0,81,0.00,,,0.26,,2013-02-19 11:22:00,
2013-02-19 05:32:00,18.0,13.0,29.79,WNW,288,17.0,29.0,81,0.00,,,0.26,,2013-02-19 11:32:00,
2013-02-19 05:42:00,18.0,13.0,29.79,WNW,288,17.0,29.0,81,0.00,,,0.26,,2013-02-19 11:42:00,
2013-02-19 05:52:00,18.0,13.0,29.79,West,268,16.0,26.0,82,0.00,,,0.26,,2013-02-19 11:52:00,
2013-02-19 06:02:00,18.0,13.0,29.79,West,268,16.0,26.0,82,0.00,,,0.26,,2013-02-19 12:02:00,
2013-02-19 06:12:00,18.0,13.0,29.79,West,268,16.0,26.0,82,0.00,,,0.26,,2013-02-19 12:12:00,
2013-02-19 06:22:00,18.0,13.0,29.79,West,268,16.0,26.0,82,0.00,,,0.26,,2013-02-19 12:22:00,
2013-02-19 06:32:00,16.0,11.0,29.80,West,269,17.0,28.0,81,0.00,,,0.26,,2013-02-19 12:32:00,
2013-02-19 06:42:00,16.0,11.0,29.80,West,269,17.0,28.0,81,0.00,,,0.26,,2013-02-19 12:42:00,
2013-02-19 06:52:00,16.0,11.0,29.81,West,265,19.0,27.0,81,0.00,,,0.26,,2013-02-19 12:52:00,
2013-02-19 07:02:00,16.0,11.0,29.82,WNW,288,15.0,25.0,81,0.00,,,0.26,,2013-02-19 13:02:00,
2013-02-19 07:11:00,16.0,11.0,29.82,WNW,288,15.0,25.0,81,0.00,,,0.26,,2013-02-19 13:11:00,
2013-02-19 07:22:00,16.0,12.0,29.83,West,277,14.0,28.0,83,0.00,,,0.26,,2013-02-19 13:22:00,
2013-02-19 07:32:00,16.0,11.0,29.83,WNW,283,20.0,29.0,79,0.00,,,0.26,,2013-02-19 13:32:00,
2013-02-19 07:42:00,16.0,11.0,29.83,WNW,283,20.0,29.0,79,0.00,,,0.26,,2013-02-19 13:42:00,
2013-02-19 07:52:00,15.0,9.0,29.84,West,269,22.0,32.0,78,0.00,,,0.26,,2013-02-19 13:52:00,
2013-02-19 08:01:00,15.0,10.0,29.85,West,278,18.0,29.0,80,0.00,,,0.26,,2013-02-19 14:01:00,
2013-02-19 08:11:00,15.0,10.0,29.85,West,278,18.0,29.0,80,0.00,,,0.26,,2013-02-19 14:11:00,
2013-02-19 08:21:00,15.0,11.0,29.86,West,268,16.0,25.0,83,0.00,,,0.26,,2013-02-19 14:21:00,
2013-02-19 08:32:00,15.0,11.0,29.86,West,268,16.0,25.0,83,0.00,,,0.26,,2013-02-19 14:32:00,
2013-02-19 08:42:00,15.0,11.0,29.86,West,268,16.0,25.0,83,0.00,,,0.26,,2013-02-19 14:42:00,
2013-02-19 08:52:00,15.0,10.0,29.88,West,281,15.0,26.0,81,0.00,,,0.26,,2013-02-19 14:52:00,
2013-02-19 09:01:00,15.0,10.0,29.89,West,281,16.0,25.0,80,0.00,,,0.26,,2013-02-19 15:01:00,
2013-02-19 09:11:00,15.0,10.0,29.89,West,281,16.0,25.0,80,0.00,,,0.26,,2013-02-19 15:11:00,
2013-02-19 09:21:00,14.0,8.0,29.90,West,278,18.0,26.0,78,0.00,,,0.26,,2013-02-19 15:21:00,
2013-02-19 09:32:00,15.0,10.0,29.90,West,270,18.0,26.0,80,0.00,,,0.26,,2013-02-19 15:32:00,
2013-02-19 09:42:00,15.0,10.0,29.90,West,270,18.0,26.0,80,0.00,,,0.26,,2013-02-19 15:42:00,
2013-02-19 09:52:00,15.0,10.0,29.90,WNW,285,19.0,29.0,79,0.00,,,0.26,,2013-02-19 15:52:00,
2013-02-19 10:02:00,15.0,9.0,29.92,West,272,19.0,25.0,76,0.00,,,0.26,,2013-02-19 16:02:00,
2013-02-19 10:11:00,15.0,9.0,29.92,West,272,19.0,25.0,76,0.00,,,0.26,,2013-02-19 16:11:00,
2013-02-19 10:21:00,15.0,10.0,29.93,West,281,16.0,25.0,79,0.00,,,0.26,,2013-02-19 16:21:00,
2013-02-19 10:32:00,15.0,10.0,29.94,West,271,16.0,24.0,79,0.00,,,0.26,,2013-02-19 16:32:00,
2013-02-19 10:41:00,15.0,10.0,29.94,West,271,16.0,24.0,79,0.00,,,0.26,,2013-02-19 16:41:00,
2013-02-19 10:52:00,15.0,9.0,29.95,WNW,282,17.0,26.0,77,0.00,,,0.26,,2013-02-19 16:52:00,
2013-02-19 11:01:00,14.0,9.0,29.95,WSW,255,17.0,25.0,81,0.00,,,0.26,,2013-02-19 17:01:00,
2013-02-19 11:11:00,14.0,9.0,29.95,WSW,255,17.0,25.0,81,0.00,,,0.26,,2013-02-19 17:11:00,
2013-02-19 11:21:00,15.0,10.0,29.96,WNW,285,16.0,28.0,79,0.00,,,0.26,,2013-02-19 17:21:00,
2013-02-19 11:32:00,15.0,10.0,29.96,West,278,17.0,27.0,79,0.00,,,0.26,,2013-02-19 17:32:00,
2013-02-19 11:42:00,15.0,10.0,29.96,West,278,17.0,27.0,79,0.00,,,0.26,,2013-02-19 17:42:00,
2013-02-19 11:52:00,14.0,9.0,29.96,West,271,18.0,24.0,79,0.00,,,0.26,,2013-02-19 17:52:00,
2013-02-19 12:01:00,15.0,10.0,29.96,West,264,17.0,26.0,79,0.00,,,0.26,,2013-02-19 18:01:00,
2013-02-19 12:11:00,15.0,10.0,29.96,West,264,17.0,26.0,79,0.00,,,0.26,,2013-02-19 18:11:00,
2013-02-19 12:21:00,15.0,10.0,29.97,West,280,14.0,21.0,81,0.00,,,0.26,,2013-02-19 18:21:00,
2013-02-19 12:31:00,15.0,10.0,29.97,West,280,14.0,21.0,81,0.00,,,0.26,,2013-02-19 18:31:00,
2013-02-19 12:42:00,15.0,10.0,29.97,West,280,14.0,21.0,81,0.00,,,0.26,,2013-02-19 18:42:00,
2013-02-19 12:52:00,15.0,9.0,29.98,NW,306,17.0,24.0,78,0.00,,,0.26,,2013-02-19 18:52:00,
2013-02-19 13:01:00,16.0,11.0,29.98,West,281,16.0,26.0,79,0.00,,,0.26,,2013-02-19 19:01:00,
2013-02-19 13:11:00,16.0,11.0,29.98,West,281,16.0,26.0,79,0.00,,,0.26,,2013-02-19 19:11:00,
2013-02-19 13:21:00,16.0,11.0,29.98,West,281,16.0,26.0,79,0.00,,,0.26,,2013-02-19 19:21:00,
2013-02-19 13:31:00,16.0,11.0,29.99,West,280,15.0,26.0,80,0.00,,,0.26,,2013-02-19 19:31:00,
2013-02-19 13:41:00,16.0,11.0,29.99,West,280,15.0,26.0,80,0.00,,,0.26,,2013-02-19 19:41:00,
2013-02-19 13:52:00,16.0,11.0,29.99,West,281,19.0,27.0,79,0.00,,,0.26,,2013-02-19 19:52:00,
2013-02-19 14:01:00,17.0,12.0,30.00,WNW,285,15.0,24.0,80,0.00,,,0.26,,2013-02-19 20:01:00,
2013-02-19 14:12:00,17.0,12.0,30.00,WNW,285,15.0,24.0,80,0.00,,,0.26,,2013-02-19 20:12:00,
2013-02-19 14:21:00,17.0,11.0,29.99,NW,306,17.0,26.0,78,0.00,,,0.26,,2013-02-19 20:21:00,
2013-02-19 14:32:00,18.0,13.0,29.99,West,269,16.0,28.0,79,0.00,,,0.26,,2013-02-19 20:32:00,
2013-02-19 14:42:00,18.0,13.0,29.99,West,269,16.0,28.0,79,0.00,,,0.26,,2013-02-19 20:42:00,
2013-02-19 14:52:00,19.0,14.0,30.00,WNW,300,16.0,24.0,79,0.00,,,0.26,,2013-02-19 20:52:00,
2013-02-19 15:02:00,19.0,13.0,30.01,WNW,285,15.0,27.0,78,0.00,,,0.26,,2013-02-19 21:02:00,
2013-02-19 15:11:00,19.0,13.0,30.01,WNW,285,15.0,27.0,78,0.00,,,0.26,,2013-02-19 21:11:00,
2013-02-19 15:21:00,19.0,13.0,30.02,West,271,15.0,23.0,78,0.00,,,0.26,,2013-02-19 21:21:00,
2013-02-19 15:32:00,19.0,13.0,30.03,West,278,16.0,25.0,77,0.00,,,0.26,,2013-02-19 21:32:00,
2013-02-19 15:42:00,19.0,13.0,30.03,West,278,16.0,25.0,77,0.00,,,0.26,,2013-02-19 21:42:00,
2013-02-19 15:52:00,20.0,14.0,30.03,West,277,18.0,24.0,76,0.00,,,0.26,,2013-02-19 21:52:00,
2013-02-19 16:02:00,19.0,13.0,30.05,West,281,17.0,23.0,76,0.00,,,0.26,,2013-02-19 22:02:00,
2013-02-19 16:11:00,19.0,13.0,30.05,West,281,17.0,23.0,76,0.00,,,0.26,,2013-02-19 22:11:00,
2013-02-19 16:21:00,20.0,14.0,30.05,WNW,282,14.0,23.0,76,0.00,,,0.26,,2013-02-19 22:21:00,
2013-02-19 16:32:00,21.0,14.0,30.06,WNW,294,15.0,24.0,75,0.00,,,0.26,,2013-02-19 22:32:00,
2013-02-19 16:41:00,21.0,14.0,30.06,WNW,294,15.0,24.0,75,0.00,,,0.26,,2013-02-19 22:41:00,
2013-02-19 16:52:00,21.0,14.0,30.07,West,279,16.0,24.0,75,0.00,,,0.26,,2013-02-19 22:52:00,
2013-02-19 17:01:00,21.0,14.0,30.07,WNW,285,14.0,22.0,75,0.00,,,0.26,,2013-02-19 23:01:00,
2013-02-19 17:11:00,21.0,14.0,30.07,WNW,285,14.0,22.0,75,0.00,,,0.26,,2013-02-19 23:11:00,
2013-02-19 17:21:00,21.0,14.0,30.08,WNW,286,14.0,24.0,75,0.00,,,0.26,,2013-02-19 23:21:00,
2013-02-19 17:32:00,20.0,14.0,30.09,West,279,13.0,20.0,77,0.00,,,0.26,,2013-02-19 23:32:00,
2013-02-19 17:41:00,20.0,14.0,30.09,West,279,13.0,20.0,77,0.00,,,0.26,,2013-02-19 23:41:00,
2013-02-19 17:52:00,20.0,14.0,30.09,West,279,12.0,20.0,76,0.00,,,0.26,,2013-02-19 23:52:00,
2013-02-19 18:01:00,20.0,13.0,30.10,WNW,291,12.0,22.0,75,0.00,,,0.26,,2013-02-20 00:01:00,
2013-02-19 18:11:00,20.0,13.0,30.10,WNW,291,12.0,22.0,75,0.00,,,0.26,,2013-02-20 00:11:00,
2013-02-19 18:21:00,20.0,14.0,30.11,WNW,289,10.0,19.0,76,0.00,,,0.26,,2013-02-20 00:21:00,
2013-02-19 18:31:00,20.0,13.0,30.11,WNW,284,13.0,21.0,74,0.00,,,0.26,,2013-02-20 00:31:00,
2013-02-19 18:42:00,20.0,13.0,30.11,WNW,284,13.0,21.0,74,0.00,,,0.26,,2013-02-20 00:42:00,
2013-02-19 18:52:00,20.0,13.0,30.12,WNW,292,11.0,21.0,75,0.00,,,0.26,,2013-02-20 00:52:00,
2013-02-19 19:02:00,20.0,14.0,30.12,WNW,284,8.0,14.0,77,0.00,,,0.26,,2013-02-20 01:02:00,
2013-02-19 19:11:00,20.0,14.0,30.12,WNW,284,8.0,14.0,77,0.00,,,0.26,,2013-02-20 01:11:00,
2013-02-19 19:21:00,19.0,13.0,30.13,West,276,10.0,19.0,77,0.00,,,0.26,,2013-02-20 01:21:00,
2013-02-19 19:32:00,19.0,13.0,30.14,West,277,14.0,20.0,76,0.00,,,0.14,,2013-02-20 01:32:00,
2013-02-19 19:42:00,19.0,13.0,30.14,West,277,14.0,20.0,76,0.00,,,0.14,,2013-02-20 01:42:00,
2013-02-19 19:52:00,19.0,13.0,30.14,West,271,12.0,20.0,76,0.00,,,0.14,,2013-02-20 01:52:00,
2013-02-19 20:01:00,18.0,12.0,30.15,West,281,12.0,19.0,76,0.00,,,0.14,,2013-02-20 02:01:00,
2013-02-19 20:11:00,18.0,12.0,30.15,West,281,12.0,19.0,76,0.00,,,0.14,,2013-02-20 02:11:00,
2013-02-19 20:21:00,18.0,12.0,30.16,WNW,283,9.0,14.0,78,0.00,,,0.14,,2013-02-20 02:21:00,
2013-02-19 20:31:00,18.0,12.0,30.16,WNW,298,10.0,18.0,78,0.00,,,0.01,,2013-02-20 02:31:00,
2013-02-19 20:42:00,18.0,12.0,30.16,WNW,298,10.0,18.0,78,0.00,,,0.01,,2013-02-20 02:42:00,
2013-02-19 20:52:00,18.0,12.0,30.16,West,279,12.0,19.0,77,0.00,,,0.01,,2013-02-20 02:52:00,
2013-02-19 21:01:00,17.0,11.0,30.16,WNW,298,14.0,19.0,78,0.00,,,0.01,,2013-02-20 03:01:00,
2013-02-19 21:12:00,17.0,11.0,30.16,WNW,298,14.0,19.0,78,0.00,,,0.01,,2013-02-20 03:12:00,
2013-02-19 21:22:00,17.0,11.0,30.17,West,281,14.0,20.0,78,0.00,,,0.01,,2013-02-20 03:22:00,
2013-02-19 21:32:00,16.0,10.0,30.18,WNW,289,11.0,20.0,78,0.00,,,0.00,,2013-02-20 03:32:00,
2013-02-19 21:41:00,16.0,10.0,30.18,WNW,289,11.0,20.0,78,0.00,,,0.00,,2013-02-20 03:41:00,
2013-02-19 21:52:00,16.0,10.0,30.19,WNW,293,13.0,17.0,78,0.00,,,0.00,,2013-02-20 03:52:00,
2013-02-19 22:01:00,15.0,10.0,30.19,WNW,288,11.0,18.0,79,0.00,,,0.00,,2013-02-20 04:01:00,
2013-02-19 22:11:00,15.0,10.0,30.19,WNW,288,11.0,18.0,79,0.00,,,0.00,,2013-02-20 04:11:00,
2013-02-19 22:21:00,15.0,10.0,30.20,WNW,300,10.0,17.0,79,0.00,,,0.00,,2013-02-20 04:21:00,
2013-02-19 22:31:00,15.0,10.0,30.20,WNW,300,10.0,17.0,79,0.00,,,0.00,,2013-02-20 04:31:00,
2013-02-19 22:41:00,15.0,10.0,30.20,WNW,300,10.0,17.0,79,0.00,,,0.00,,2013-02-20 04:41:00,
2013-02-19 22:52:00,14.0,9.0,30.22,WNW,286,9.0,15.0,79,0.00,,,0.00,,2013-02-20 04:52:00,
2013-02-19 23:02:00,14.0,9.0,30.22,WNW,289,10.0,16.0,79,0.00,,,0.00,,2013-02-20 05:02:00,
2013-02-19 23:12:00,14.0,9.0,30.22,WNW,289,10.0,16.0,79,0.00,,,0.00,,2013-02-20 05:12:00,
2013-02-19 23:22:00,13.0,8.0,30.22,West,278,8.0,14.0,81,0.00,,,0.00,,2013-02-20 05:22:00,
2013-02-19 23:32:00,13.0,9.0,30.24,WNW,296,7.0,15.0,82,0.00,,,0.00,,2013-02-20 05:32:00,
2013-02-19 23:43:00,13.0,9.0,30.24,WNW,296,7.0,15.0,82,0.00,,,0.00,,2013-02-20 05:43:00,
2013-02-19 23:52:00,13.0,8.0,30.24,WNW,284,9.0,15.0,80,0.00,,,0.00,,2013-02-20 05:52:00,